Louisville, KY

8:57 AM EST on December 07, 2016 (GMT -0500)
Bowman

Weather History for KLOU - May, 2013

Change the Weather History Date:

Tuesday, May 7, 2013

  Actual Average Record
Temperature  
Mean Temperature 66 °F 64 °F  
Max Temperature 75 °F 74 °F 88 °F (2015)
Min Temperature 56 °F 54 °F 36 °F (1989)
Degree Days  
Heating Degree Days 0 3  
Month to date heating degree days 20 28  
Since 1 July heating degree days 4283 4219  
Cooling Degree Days 1 2  
Month to date cooling degree days 12 13  
Year to date cooling degree days 49 47  
Growing Degree Days 14 (Base 50)    
Moisture  
Dew Point 54 °F    
Average Humidity 69    
Maximum Humidity 93    
Minimum Humidity 44    
Precipitation  
Precipitation 0.01 in 0.18 in 4.60 in (1961)
Month to date precipitation 1.43 1.29  
Year to date precipitation 16.02 16.09  
Sea Level Pressure  
Sea Level Pressure 29.95 in    
Wind  
Wind Speed 4 mph (North)    
Max Wind Speed 10 mph    
Max Gust Speed 15 mph    
Visibility 10 miles    
Events Rain    
T = Trace of Precipitation, MM = Missing Value Source: NWS Daily Summary

Daily Weather History Graph

Daily Weather History Graph

Search for Another Location

Airport or City:

Trip Planner

Search our weather history database for the weather conditions in past years. The results will help you decide how hot, cold, wet, or windy it might be!

Date:

Astronomy

May. 07, 2013 Rise Set
Actual Time 6:39 AM EDT 8:39 PM EDT
Civil Twilight 6:10 AM EDT 9:08 PM EDT
Nautical Twilight 5:34 AM EDT 9:44 PM EDT
Astronomical Twilight 4:56 AM EDT 10:22 PM EDT
Moon 5:11 AM EDT 6:40 PM EDT
Length of Visible Light 14h 58m
Length of Day
14h 00m
Waning Crescent, 5% of the Moon is Illuminated
May 7
Waning Crescent
May 9
New
May 18
First Quarter
May 25
Full
May 31
Last Quarter

Hourly Weather History & Observations

Time (EDT) Temp. Dew Point Humidity Pressure Visibility Wind Dir Wind Speed Gust Speed Precip Events Conditions
12:00 AM 55.4 °F 53.6 °F 94% 29.93 in 10.0 mi Calm Calm - N/A   Mostly Cloudy
12:23 AM 55.4 °F 53.6 °F 94% 29.92 in 10.0 mi Calm Calm - N/A   Scattered Clouds
12:53 AM 55.9 °F 53.1 °F 90% 29.92 in 10.0 mi North 3.5 mph - N/A   Clear
1:53 AM 57.0 °F 54.0 °F 89% 29.91 in 10.0 mi North 3.5 mph - N/A   Overcast
2:53 AM 57.9 °F 55.0 °F 90% 29.91 in 10.0 mi North 3.5 mph - 0.00 in Rain Light Rain
3:53 AM 57.0 °F 55.0 °F 93% 29.92 in 10.0 mi Calm Calm - 0.01 in   Overcast
4:19 AM 57.2 °F 55.4 °F 94% 29.92 in 10.0 mi NNW 3.5 mph - N/A   Overcast
4:53 AM 57.0 °F 55.0 °F 93% 29.92 in 10.0 mi North 4.6 mph - N/A   Overcast
5:03 AM 57.2 °F 55.4 °F 94% 29.92 in 9.0 mi Calm Calm - N/A   Overcast
5:30 AM 57.2 °F 55.4 °F 94% 29.93 in 9.0 mi North 4.6 mph - N/A   Overcast
5:53 AM 57.0 °F 55.0 °F 93% 29.93 in 10.0 mi NNW 3.5 mph - N/A   Overcast
6:53 AM 57.0 °F 55.0 °F 93% 29.95 in 10.0 mi Calm Calm - N/A   Overcast
7:53 AM 57.9 °F 55.0 °F 90% 29.97 in 10.0 mi NNE 4.6 mph - 0.00 in Rain Light Rain
8:39 AM 59.0 °F 55.4 °F 88% 29.98 in 10.0 mi NNE 5.8 mph - N/A   Overcast
8:53 AM 59.0 °F 55.9 °F 90% 29.98 in 10.0 mi NNE 5.8 mph - N/A   Overcast
9:14 AM 59.0 °F 55.4 °F 88% 29.98 in 6.0 mi NE 6.9 mph - N/A   Overcast
9:53 AM 62.1 °F 55.9 °F 80% 29.98 in 10.0 mi NE 5.8 mph - N/A   Overcast
10:00 AM 62.6 °F 55.4 °F 77% 29.98 in 10.0 mi NE 8.1 mph - N/A   Mostly Cloudy
10:53 AM 64.9 °F 55.9 °F 73% 29.98 in 10.0 mi NNE 6.9 mph - N/A   Scattered Clouds
11:53 AM 66.0 °F 53.1 °F 63% 29.99 in 10.0 mi NE 6.9 mph - N/A   Mostly Cloudy
12:53 PM 66.9 °F 53.1 °F 61% 29.98 in 10.0 mi North 4.6 mph - N/A   Scattered Clouds
1:53 PM 69.1 °F 53.1 °F 57% 29.97 in 10.0 mi Variable 4.6 mph - N/A   Overcast
2:53 PM 71.1 °F 52.0 °F 51% 29.96 in 10.0 mi Calm Calm - N/A   Mostly Cloudy
3:53 PM 71.1 °F 52.0 °F 51% 29.95 in 10.0 mi Calm Calm - N/A   Mostly Cloudy
4:53 PM 73.9 °F 53.1 °F 48% 29.92 in 10.0 mi NW 5.8 mph - N/A   Partly Cloudy
5:53 PM 73.0 °F 50.0 °F 44% 29.93 in 10.0 mi North 5.8 mph - N/A   Clear
6:53 PM 73.0 °F 52.0 °F 48% 29.92 in 10.0 mi NNW 8.1 mph - N/A   Clear
7:53 PM 71.1 °F 53.1 °F 53% 29.92 in 10.0 mi North 5.8 mph - N/A   Clear
8:53 PM 69.1 °F 54.0 °F 58% 29.94 in 10.0 mi NNW 3.5 mph - N/A   Clear
9:53 PM 64.9 °F 54.0 °F 68% 29.96 in 10.0 mi NW 3.5 mph - N/A   Clear
10:53 PM 64.9 °F 55.0 °F 70% 29.96 in 10.0 mi Calm Calm - N/A   Overcast
11:53 PM 64.0 °F 55.0 °F 73% 29.96 in 10.0 mi NNE 3.5 mph - N/A   Partly Cloudy